Regional Weather Roundup
Issued by NWS Green Bay, WI

Home | Current Version | Previous Version | Text Only | Print | Product List | Glossary On
Versions: 1 2 3 4 5 6 7 8 9 10 11 12 13 14 15 16 17 18 19 20 21 22 23 24 25 26 27 28 29 30 31 32 33 34 35 36 37 38 39 40 41 42 43 44 45 46 47 48 49 50
000
ASUS43 KGRB 040859
RWRGRB

NORTH-CENTRAL AND NORTHEAST WISCONSIN REGIONAL WEATHER ROUNDUP
NATIONAL WEATHER SERVICE GREEN BAY WI
400 AM CDT MON MAY 04 2015

WIZ005-009-010>012-018-019-041000-
NORTH CENTRAL WISCONSIN

CITY           SKY/WX    TMP DP  RH WIND       PRES   REMARKS
IRONWOOD       CLOUDY    50  36  57 N7        29.97R
MANITOWISH WTR NOT AVBL
ARBOR VITAE    NOT AVBL
EAGLE RIVER    NOT AVBL
LAND O LAKES   NOT AVBL
RHINELANDER    CLOUDY    52  45  77 N6        29.94R
PHILLIPS       CLEAR     48  43  83 NW7       29.96R
ANTIGO         NOT AVBL
TOMAHAWK       NOT AVBL
MERRILL        NOT AVBL
$$

WIZ013-073-041000-
NORTHEAST WISCONSIN

CITY           SKY/WX    TMP DP  RH WIND       PRES   REMARKS
IRON MOUNTAIN  CLOUDY    53  46  77 NW8       29.88R
MARINETTE      CLOUDY    57  54  88 W3        29.88R
$$

WIZ017-030-035>037-045-041000-
CENTRAL WISCONSIN

CITY           SKY/WX    TMP DP  RH WIND       PRES   REMARKS
MEDFORD        NOT AVBL
WAUSAU         CLOUDY    54  52  93 N5        29.92R
MOSINEE        NOT AVBL
MARSHFIELD     CLOUDY    54  54 100 NW3       29.92S FOG
WISC RAPIDS    CLOUDY    56  54  93 N3        29.94R
STEVENS POINT  NOT AVBL
WAUPACA        NOT AVBL
SHAWANO        NOT AVBL
CLINTONVILLE   CLOUDY    55  55 100 NW6       29.90R
$$

WIZ038-039-048-051-041000-
FOX VALLEY

CITY           SKY/WX    TMP DP  RH WIND       PRES   REMARKS
NWS GREEN BAY  CLOUDY    58  57  97 S5        29.88R
APPLETON       NOT AVBL
OSHKOSH        CLOUDY    57  55  93 N6        29.88R
FOND DU LAC    CLOUDY    59  56  89 NW5       29.86F
$$

WIZ022-050-052-041000-
EAST CENTRAL WISCONSIN

CITY           SKY/WX    TMP DP  RH WIND       PRES   REMARKS
STURGEON BAY   CLOUDY    57  54  88 CALM      29.89S
MANITOWOC      NOT AVBL
SHEBOYGAN      LGT RAIN  56  54  93 NE12      29.83F FOG
$$

LMZ563-521-522-541>543-041000-
LAKESHORE

STATION/POSITION TIME  TEMP    WIND        PRES    VSBY  WAVE
                       AIR SEA DIR/SP/G                  HT/PER
                 (UTC) (F)     (DEG/KT/KT) (MB)    (MI)  (FT/S)
SHEBOYGAN LKSHOR 0800   54     230/  1/  2 1012.8R
KEWAUNEE LKSHORE 0800   57      50/  3/ 10 1009.5F
NORTHPORT PIER   0800   55     150/  2/  5 1011.5S
SISTER BAY LKSHO 0800   58        CALM       N/A
CHAMBERS ISLAND  0800   56     140/  3/  6 1011.5S
MENOMINEE LKSHOR 0800   55     160/  8/  9 1011.7R
$$


USA.gov is the U.S. government's official web portal to all federal, state and local government web resources and services.